sat.trackr.live / text

‹ back to catalog

STARLINK-34589

NORAD 64747 · 2025-144Z

PAYLOAD ACTIVE UNKNOWN

§ Identity

Operator
Country
US
Launch date
2025-07-02
Launch site
AFETR
Launch vehicle
Mass (kg)
RCS (m²)

Purposes: comms

External: N2YO · Heavens-Above · Gunter

§ Orbital elements

Epoch: 2026-05-24T11:51:35.498304Z

Period
94.11 min
Inclination
53.1589°
Eccentricity
0.0001076
Mean motion
15.30203524 rev/d
Perigee alt
474.5 km
Apogee alt
475.9 km
Semi-major
6,853.3 km
B*
5.9132e-4
RAAN
176.3904°
Arg perigee
83.3342°
Mean anomaly
276.7781°
Rev number
5,149

§ Raw data

STARLINK-345891 64747U 25144Z   26144.49416086  .00017196  00000+0  59132-3 0  99952 64747  53.1589 176.3904 0001076  83.3342 276.7781 15.30203524 51490

JSON: /api/v1/satellites/64747 · /tle

For live sub-satellite position, see the globe view (requires WebGL).

§ Visibility from observer

Set your observer location to see the next 7 days of passes ≥ 10°. The values pass through the URL so the page stays shareable.

No JS? Fill the form by hand. The geolocation button needs JavaScript.